Find Sirius 4

NORAD ID: 32299 Int'l Des: 2007-057 Owner: SESS Country: S operational
HEOCIRCULARGSOGEO

Live Position

Loading 3D Globe...

About Sirius 4

Description loading...

Upcoming Passes

Passes for default location (London). Set your location on the main map for personalized predictions.

Altitude History

Loading altitude history...

Two-Line Element Set

1 32299U 07057A 26106.94052779 .00000039 00000-0 00000-0 0 9994
2 32299 0.0413 44.6612 0002492 349.9422 153.8800 1.00270334 51032
Epoch: Apr 16, 2026 • Age: 14 hours

Current Status

Altitude 35775.9 km
Velocity 3.08 km/s
Sub-Earth Point 0.01°N, 4.8°E
Launch Date Nov 17, 2007
Age 18.4 years
Type other

Technical Details

Classification Payload
Mass 4385.00 kg
Dry Mass 2000.00 kg
Total Mass 4385.00 kg
Length 5.50 m
Diameter 2.20 m
Span 26.00 m
Shape Box + 2 Pan
Manufacturer LMCSS
Bus Type A2100AX
Phase Status In Orbit
Owner/State SESS/S

Most Searched